Content
SEND FEEDBACK

Daily
Averages
Monthly
Summary
United Kingdom

COUNTY OAK, ENGLAND


Home > Europe > United Kingdom > England
Elevation: 203 feet     Latitude: 51 01N     Longitude: 000 10W

WEATHER
 
SELECT A DAY
Number of Records: 297,285;   Date Range: 7/1/96 - 10/23/14
 
SHARE

PRINT THIS DATA

[ ← Previous Day ]
WEATHER ALMANAC - OCTOBER 12, 2013
[ Next Day → ]
[ °C ]   °F
Weather ElementAverageHighLow
Temperature50.9 °F55.4 °F (3:50 am)44.6 °F (8:20 pm)
Dewpoint46.2 °F53.6 °F (3:50 am)42.8 °F (2:20 pm)
Humidity84.8 %100 % (6:20 am)63 % (2:20 pm)
Barometer30.05 in30.12 in (11:50 am)29.95 in (2:20 am)
Wind Speed8 mph18.4 mph (12:50 am)
Wind Gust28.8 mph (2:20 am)
Weather ElementAverage
Visibility5.6 mi
Wind DirectionENE (74.9 °)

Weather ElementTotal
Precipitation---
Heating Degree Days15 (Base 65)
Averaged from 47 records on October 12, 2013
WEATHER CONDITIONS BREAKOUT
WIND DIRECTION BREAKOUT
WEATHER BY HOUR - OCTOBER 12, 2013
[ °C ]   °F
Local TimeTemperatureDewpointHumidityBarometerVisibilityWind DirectionWind SpeedGust SpeedPrecipitationEventsConditions
12:50 AM53.6 °F51.8 °F94 %29.98 in3.1 miNorth (10°)18.4 mphRainLight Rain
1:20 AM53.6 °F51.8 °F94 %29.98 in5.0 miNorth (10°)17.3 mphRainLight Rain
1:50 AM53.6 °F51.8 °F94 %29.98 in2.8 miNorth (10°)18.4 mphRainRain
2:20 AM53.6 °F51.8 °F94 %29.95 in4.3 miNorth (10°)17.3 mph28.8 mphRainRain
2:50 AM53.6 °F51.8 °F94 %29.95 in3.7 miNorth (10°)18.4 mphRainLight Rain
3:20 AM53.6 °F51.8 °F94 %29.95 in3.1 miNorth (10°)17.3 mphDrizzle
3:50 AM55.4 °F53.6 °F94 %29.95 in4.3 miNNE (20°)17.3 mphRainLight Rain
4:20 AM53.6 °F51.8 °F94 %29.95 in5.0 miEast (100°)11.5 mphRainLight Rain
4:50 AM50.0 °F48.2 °F94 %29.98 in4.3 miESE (120°)9.2 mphRainLight Rain
5:20 AM50.0 °F48.2 °F94 %29.98 in6.2 miCalmRainLight Rain
5:50 AM50.0 °F48.2 °F94 %30.01 in6.2 miENE (70°)5.8 mphRainLight Rain
6:20 AM48.2 °F48.2 °F100 %30.01 in6.2 miENE (70°)6.9 mphRainLight Rain
6:50 AM48.2 °F48.2 °F100 %30.04 in6.2 miEast (80°)5.8 mphMostly Cloudy
7:20 AM48.2 °F46.4 °F93 %30.04 in5.6 miEast (80°)6.9 mphMostly Cloudy
7:50 AM46.4 °F44.6 °F93 %30.06 in5.0 miEast (80°)6.9 mphScattered Clouds
8:20 AM48.2 °F46.4 °F93 %30.06 in4.3 miENE (60°)9.2 mphScattered Clouds
8:50 AM48.2 °F44.6 °F87 %30.09 in6.2 miENE (60°)9.2 mphPartly Cloudy
9:20 AM48.2 °F46.4 °F93 %30.09 in6.2 miENE (70°)9.2 mphPartly Cloudy
9:50 AM50.0 °F46.4 °F87 %30.09 in6.2 miEast (80°)8.1 mphPartly Cloudy
10:20 AM51.8 °F46.4 °F82 %30.09 in6.2 miEast (80°)9.2 mphPartly Cloudy
10:50 AM51.8 °F46.4 °F82 %30.09 in6.2 miEast (90°)9.2 mphPartly Cloudy
11:20 AM53.6 °F46.4 °F77 %30.09 in6.2 miENE (60°)10.4 mphScattered Clouds
11:50 AM55.4 °F46.4 °F72 %30.12 in6.2 miEast (80°)8.1 mphScattered Clouds
12:20 PM55.4 °F46.4 °F72 %30.12 in6.2 miENE (60°)9.2 mphMostly Cloudy
12:50 PM55.4 °F44.6 °F67 %30.12 in6.2 miEast (100°)9.2 mphScattered Clouds
1:20 PM55.4 °F44.6 °F67 %30.12 in6.2 miNE (40°)8.1 mphScattered Clouds
1:50 PM55.4 °F44.6 °F67 %30.09 in6.2 miENE (60°)9.2 mphScattered Clouds
2:20 PM55.4 °F42.8 °F63 %30.09 in6.2 miEast (80°)9.2 mphPartly Cloudy
2:50 PM55.4 °F44.6 °F67 %30.09 in6.2 miEast (90°)8.1 mphPartly Cloudy
3:20 PM53.6 °F42.8 °F67 %30.09 in6.2 miEast (90°)6.9 mphPartly Cloudy
3:50 PM53.6 °F42.8 °F67 %30.06 in6.2 miENE (70°)4.6 mphPartly Cloudy
4:20 PM55.4 °F42.8 °F63 %30.06 in6.2 miEast (80°)4.6 mphPartly Cloudy
4:50 PM53.6 °F44.6 °F72 %30.06 in6.2 miENE (70°)6.9 mphPartly Cloudy
5:20 PM51.8 °F44.6 °F76 %30.06 in6.2 miEast (90°)4.6 mphPartly Cloudy
5:50 PM51.8 °F44.6 °F76 %30.06 inEast (90°)3.5 mphClear
6:20 PM51.8 °F44.6 °F76 %30.06 inVariable2.3 mphClear
6:50 PM48.2 °F44.6 °F87 %30.06 inVariable2.3 mphClear
7:20 PM48.2 °F44.6 °F87 %30.06 inVariable2.3 mphClear
7:50 PM46.4 °F44.6 °F93 %30.06 inCalmClear
8:20 PM44.6 °F42.8 °F93 %30.06 inVariable2.3 mphClear
8:50 PM44.6 °F42.8 °F93 %30.06 inVariable2.3 mphClear
9:20 PM44.6 °F42.8 °F93 %30.04 in6.2 miSSW (210°)3.5 mphScattered Clouds
9:50 PM46.4 °F42.8 °F87 %30.04 in6.2 miSW (230°)4.6 mphMostly Cloudy
10:20 PM46.4 °F42.8 °F87 %30.04 in6.2 miSW (220°)4.6 mphMostly Cloudy
10:50 PM46.4 °F44.6 °F93 %30.04 in6.2 miSW (220°)3.5 mphMostly Cloudy
11:20 PM46.4 °F44.6 °F93 %30.04 in6.2 miSW (230°)5.8 mphMostly Cloudy
11:50 PM46.4 °F42.8 °F87 %30.04 in6.2 miSW (230°)8.1 mphScattered Clouds
Hourly data recorded from EGKK, located miles away from County Oak, England







STORIES FROM OUR PARTNERS